SDS-1

导读 | 豆包AI

SDS-1是日本于2009年1月23日8时发射的一颗卫星,归属日本内阁卫星情报中心管理,属于快速反应原型卫星。其定位是作为日本信息收集卫星的替代备份,当主监视卫星出现故障时可快速补网,支撑国家安全与灾害监测任务。该卫星重量约100千克,光学分辨率优于1米,有效载荷细节未公开。

Basic Information
目录编号:
33497
目录名称:
SDS-1
国际标识:
2009-002F
轨道中心:
EARTH
卫星名称:
SDS-1
卫星全名:
--
卫星状态:
在轨 (已飞行6307 天)
发射日期:
2009-01-23 UTC
国别 :
日本 (JP)
星等 :
--
Orbit Information
数据来源 国际轨道数据 AOE轨道数据
星历时间 2026-04-30T23:37:34+0800
10小时前
查看轨道信息
2026-04-27T02:00:00+0800
4天前
查看轨道信息
半长轴 7024.996km 7025.023km
偏心率 0.0003241 0.0003046
轨道倾角 98.196° 98.195°
近地点辐角 81.195° 90.677°
升交点赤经 19.324° 15.379°
平近点角 278.962° 94.731°
近地点 644.582km 644.746km
远地点 649.136km 649.026km
周期 97.663分钟 97.663分钟
每日圈数 14.744624 14.744539
Detailed Information
使用方式:
暂无
2D Orbit Map
3D Orbit Map
Orbit Altitude Analysis Chart
Orbit Inclination Analysis Chart
Orbit Comprehensive Analysis Chart
View Comprehensive Chart